COSMOS 2389 (27436 NORAD) Tracking and Keplerian Element Data

This shows tracking and keplerian element data for the satellite.

Feedback or suggestion? Click here.




ElementValue
Catalog27436
NameCOSMOS 2389
Epoch Orbit13863
Epoch Day34.92798932
Epoch Year2025
RAAN177.7662
Inclination82.9527
Eccentricity0.0045891
Argument of Perigee208.7328
Mean Anonmoly269.9346
Mean Motion13.75116044
Decay Rate1.25E-06
L11 27436U 02026A 25034.92798932 .00000125 00000+0 11436-3 0 9990
L22 27436 82.9527 177.7662 0045891 208.7328 269.9346 13.75116044138632



Live tracking and technical data element details for COSMOS 2389 (NORAD 27436). COSMOS 2389 can be tracked NOW for your location showing map with azimuth and elevation plus other details from your city location.







IsCatalogInMostPopularTable: catalog: 27436, numindb: 329
Update: records affected: 1



GetName: 27436 COSMOS 2389

Hit Count: updated at: Sat, 24 May 2025 15:34:43 GMT